| time (UTC) | temp F | wind direction | speed MPH | gust MPH | rain 1hr in | rain 24hr in | rain mn in | humidity % | barometer mb |
| 20260507060603 | 52 | 215 | 1.0 | 1.0 | 0.00 | 0.01 | 0.01 | 99 | 1019.9 |
| 20260507060059 | 52 | 217 | 0.0 | 0.0 | 0.00 | 0.01 | 0.01 | 99 | 1019.9 |
| 20260507055554 | 52 | 225 | 0.0 | 0.0 | 0.00 | 0.01 | 0.01 | 99 | 1019.9 |
| 20260507055051 | 52 | 228 | 0.0 | 0.0 | 0.00 | 0.01 | 0.01 | 99 | 1019.9 |
| 20260507054547 | 52 | 232 | 0.0 | 0.0 | 0.00 | 0.01 | 0.01 | 99 | 1019.9 |
| 20260507054044 | 52 | 237 | 0.0 | 0.0 | 0.00 | 0.01 | 0.01 | 99 | 1019.9 |
| 20260507053542 | 52 | 236 | 0.0 | 0.0 | 0.00 | 0.01 | 0.01 | 99 | 1019.9 |
| 20260507053040 | 52 | 199 | 0.0 | 1.0 | 0.00 | 0.01 | 0.01 | 99 | 1019.9 |
| 20260507052537 | 52 | 224 | 0.0 | 0.0 | 0.00 | 0.01 | 0.01 | 99 | 1019.9 |
| 20260507052034 | 52 | 228 | 0.0 | 1.0 | 0.00 | 0.01 | 0.01 | 99 | 1020.4 |
| 20260507051532 | 52 | 246 | 0.0 | 0.0 | 0.00 | 0.01 | 0.01 | 99 | 1019.9 |
| 20260507051028 | 53 | 201 | 0.0 | 1.0 | 0.00 | 0.01 | 0.01 | 99 | 1019.9 |
| 20260507050525 | 53 | 234 | 1.0 | 1.0 | 0.00 | 0.01 | 0.01 | 99 | 1019.9 |
| 20260507050022 | 53 | 225 | 0.0 | 0.0 | 0.00 | 0.01 | 0.01 | 99 | 1019.9 |
| 20260507045518 | 53 | 227 | 0.0 | 0.0 | 0.00 | 0.01 | 0.01 | 99 | 1019.9 |
| 20260507045016 | 53 | 218 | 0.0 | 1.0 | 0.00 | 0.01 | 0.01 | 98 | 1019.9 |
| 20260507044512 | 53 | 254 | 0.0 | 0.0 | 0.00 | 0.01 | 0.01 | 98 | 1020.4 |
| 20260507044009 | 53 | 245 | 0.0 | 0.0 | 0.00 | 0.01 | 0.01 | 98 | 1019.9 |
| 20260507043505 | 53 | 247 | 0.0 | 0.0 | 0.00 | 0.01 | 0.01 | 97 | 1019.6 |
| 20260507043001 | 53 | 229 | 0.0 | 0.0 | 0.00 | 0.01 | 0.01 | 97 | 1019.9 |
| 20260507042458 | 53 | 230 | 0.0 | 0.0 | 0.00 | 0.01 | 0.01 | 97 | 1019.9 |
| 20260507041954 | 53 | 234 | 0.0 | 0.0 | 0.00 | 0.01 | 0.01 | 97 | 1019.6 |
| 20260507041451 | 53 | 230 | 1.0 | 1.0 | 0.00 | 0.01 | 0.01 | 96 | 1019.9 |
| 20260507040948 | 53 | 228 | 0.0 | 0.0 | 0.00 | 0.01 | 0.01 | 96 | 1019.9 |
| 20260507040443 | 53 | 227 | 0.0 | 0.0 | 0.00 | 0.01 | 0.01 | 96 | 1019.9 |
| 20260507035939 | 53 | 119 | 1.0 | 1.0 | 0.00 | 0.01 | 0.01 | 95 | 1019.6 |
| 20260507035436 | 54 | 203 | 1.0 | 1.0 | 0.00 | 0.01 | 0.01 | 94 | 1019.6 |
| 20260507034933 | 54 | 251 | 0.0 | 0.0 | 0.00 | 0.01 | 0.01 | 93 | 1019.6 |
| 20260507034430 | 54 | 237 | 1.0 | 1.0 | 0.00 | 0.01 | 0.01 | 93 | 1019.6 |
| 20260507033928 | 54 | 234 | 0.0 | 0.0 | 0.00 | 0.01 | 0.01 | 94 | 1019.3 |
| 20260507033426 | 54 | 236 | 0.0 | 0.0 | 0.00 | 0.01 | 0.01 | 93 | 1019.6 |
| 20260507032922 | 54 | 190 | 0.0 | 1.0 | 0.00 | 0.01 | 0.01 | 94 | 1019.3 |
| 20260507032419 | 54 | 195 | 1.0 | 1.0 | 0.00 | 0.01 | 0.01 | 92 | 1019.6 |
| 20260507031915 | 54 | 190 | 0.0 | 1.0 | 0.00 | 0.01 | 0.01 | 93 | 1019.3 |
| 20260507031412 | 54 | 199 | 1.0 | 1.0 | 0.00 | 0.01 | 0.01 | 92 | 1019.3 |
| 20260507030909 | 55 | 232 | 0.0 | 0.0 | 0.00 | 0.01 | 0.01 | 92 | 1019.3 |
| 20260507030406 | 55 | 153 | 1.0 | 1.0 | 0.00 | 0.01 | 0.01 | 91 | 1019.6 |
| 20260507025903 | 55 | 225 | 2.0 | 2.0 | 0.00 | 0.01 | 0.01 | 91 | 1019.3 |
| 20260507025401 | 55 | 180 | 3.0 | 3.0 | 0.00 | 0.01 | 0.01 | 91 | 1019.3 |
| 20260507024858 | 55 | 178 | 3.0 | 3.0 | 0.00 | 0.01 | 0.01 | 91 | 1018.9 |
| 20260507024355 | 55 | 207 | 0.0 | 1.0 | 0.00 | 0.01 | 0.01 | 90 | 1019.3 |
| 20260507023851 | 55 | 219 | 2.0 | 2.0 | 0.00 | 0.01 | 0.01 | 91 | 1018.9 |
| 20260507023348 | 55 | 167 | 1.0 | 1.0 | 0.00 | 0.01 | 0.01 | 90 | 1018.9 |
| 20260507022845 | 55 | 265 | 0.0 | 0.0 | 0.00 | 0.01 | 0.01 | 90 | 1018.9 |
| 20260507022342 | 56 | 234 | 1.0 | 1.0 | 0.00 | 0.01 | 0.01 | 89 | 1018.9 |
| 20260507021837 | 56 | 210 | 1.0 | 1.0 | 0.00 | 0.01 | 0.01 | 89 | 1018.9 |
| 20260507021333 | 56 | 226 | 0.0 | 0.0 | 0.00 | 0.01 | 0.01 | 88 | 1018.9 |
| 20260507020831 | 56 | 277 | 0.0 | 0.0 | 0.00 | 0.01 | 0.01 | 88 | 1018.9 |
| 20260507020328 | 56 | 278 | 0.0 | 0.0 | 0.00 | 0.01 | 0.01 | 88 | 1019.3 |
| 20260507015825 | 56 | 235 | 0.0 | 0.0 | 0.00 | 0.01 | 0.01 | 87 | 1019.3 |
| 20260507015323 | 56 | 238 | 0.0 | 0.0 | 0.00 | 0.01 | 0.01 | 87 | 1019.3 |
| 20260507014820 | 57 | 144 | 1.0 | 2.0 | 0.00 | 0.01 | 0.01 | 86 | 1019.3 |
| 20260507014316 | 57 | 165 | 1.0 | 2.0 | 0.00 | 0.01 | 0.01 | 86 | 1018.9 |
| 20260507013812 | 57 | 165 | 0.0 | 1.0 | 0.00 | 0.01 | 0.01 | 84 | 1019.3 |
| 20260507013310 | 57 | 234 | 1.0 | 2.0 | 0.00 | 0.01 | 0.01 | 84 | 1018.9 |
| 20260507012807 | 57 | 122 | 2.0 | 2.0 | 0.00 | 0.01 | 0.01 | 84 | 1018.9 |
| 20260507012306 | 57 | 235 | 0.0 | 0.0 | 0.00 | 0.01 | 0.01 | 86 | 1018.9 |
| 20260507011800 | 57 | 204 | 0.0 | 0.0 | 0.00 | 0.01 | 0.01 | 85 | 1019.3 |
| 20260507011257 | 57 | 213 | 1.0 | 1.0 | 0.00 | 0.01 | 0.01 | 84 | 1018.9 |
| 20260507010756 | 57 | 182 | 1.0 | 1.0 | 0.00 | 0.01 | 0.01 | 84 | 1018.9 |
| 20260507010252 | 57 | 189 | 1.0 | 1.0 | 0.00 | 0.01 | 0.01 | 83 | 1018.9 |
| 20260507005750 | 57 | 222 | 0.0 | 0.0 | 0.00 | 0.01 | 0.01 | 85 | 1019.3 |
| 20260507005246 | 57 | 225 | 0.0 | 0.0 | 0.00 | 0.01 | 0.01 | 84 | 1019.3 |
| 20260507004743 | 57 | 188 | 1.0 | 1.0 | 0.00 | 0.01 | 0.01 | 83 | 1018.9 |
| 20260507004241 | 57 | 228 | 0.0 | 0.0 | 0.00 | 0.01 | 0.01 | 85 | 1018.9 |
| 20260507003736 | 57 | 149 | 2.0 | 2.0 | 0.00 | 0.01 | 0.01 | 84 | 1019.3 |
| 20260507003232 | 57 | 195 | 1.0 | 1.0 | 0.00 | 0.01 | 0.01 | 85 | 1018.9 |
| 20260507002728 | 57 | 169 | 3.0 | 3.0 | 0.00 | 0.01 | 0.01 | 84 | 1018.9 |
| 20260507002224 | 58 | 162 | 3.0 | 3.0 | 0.00 | 0.01 | 0.01 | 84 | 1018.9 |
| 20260507001721 | 58 | 195 | 3.0 | 5.0 | 0.00 | 0.01 | 0.01 | 83 | 1018.9 |
| 20260507001219 | 58 | 218 | 1.0 | 2.0 | 0.00 | 0.01 | 0.01 | 83 | 1019.3 |
| 20260507000715 | 59 | 172 | 4.0 | 5.0 | 0.00 | 0.01 | 0.01 | 82 | 1018.9 |
| 20260507000212 | 59 | 207 | 1.0 | 1.0 | 0.00 | 0.01 | 0.01 | 81 | 1019.3 |
| 20260506235708 | 59 | 234 | 1.0 | 1.0 | 0.00 | 0.01 | 0.01 | 81 | 1018.9 |
| 20260506235203 | 59 | 269 | 0.0 | 0.0 | 0.00 | 0.01 | 0.01 | 82 | 1018.6 |
| 20260506234700 | 59 | 211 | 1.0 | 1.0 | 0.00 | 0.01 | 0.01 | 83 | 1018.6 |
| 20260506234157 | 59 | 182 | 3.0 | 5.0 | 0.00 | 0.01 | 0.01 | 80 | 1018.6 |
| 20260506233655 | 59 | 292 | 0.0 | 0.0 | 0.00 | 0.01 | 0.01 | 83 | 1018.9 |
| 20260506233151 | 59 | 158 | 2.0 | 3.0 | 0.00 | 0.01 | 0.01 | 80 | 1019.3 |
| 20260506232647 | 58 | 324 | 2.0 | 2.0 | 0.00 | 0.01 | 0.01 | 81 | 1018.9 |
| 20260506232143 | 58 | 211 | 0.0 | 1.0 | 0.00 | 0.01 | 0.01 | 82 | 1019.3 |
| 20260506231640 | 58 | 216 | 1.0 | 1.0 | 0.00 | 0.01 | 0.01 | 82 | 1019.3 |
| 20260506231139 | 58 | 275 | 1.0 | 2.0 | 0.00 | 0.01 | 0.01 | 80 | 1018.9 |
| 20260506230635 | 59 | 202 | 2.0 | 3.0 | 0.00 | 0.01 | 0.01 | 82 | 1019.3 |
| 20260506230132 | 59 | 176 | 1.0 | 1.0 | 0.00 | 0.01 | 0.01 | 82 | 1019.3 |
| 20260506225628 | 59 | 170 | 1.0 | 1.0 | 0.00 | 0.01 | 0.01 | 82 | 1019.3 |
| 20260506225125 | 59 | 233 | 0.0 | 0.0 | 0.00 | 0.01 | 0.01 | 81 | 1019.3 |
| 20260506224622 | 59 | 140 | 3.0 | 3.0 | 0.00 | 0.01 | 0.01 | 79 | 1019.3 |
| 20260506224118 | 59 | 285 | 0.0 | 0.0 | 0.00 | 0.01 | 0.01 | 82 | 1019.3 |
| 20260506223615 | 59 | 184 | 5.0 | 6.0 | 0.00 | 0.01 | 0.01 | 79 | 1019.3 |
| 20260506223111 | 60 | 228 | 1.0 | 2.0 | 0.00 | 0.01 | 0.01 | 77 | 1019.3 |
| 20260506222608 | 60 | 235 | 0.0 | 1.0 | 0.00 | 0.01 | 0.01 | 79 | 1019.3 |
| 20260506222104 | 60 | 259 | 0.0 | 0.0 | 0.00 | 0.01 | 0.01 | 81 | 1019.3 |
| 20260506221602 | 60 | 230 | 1.0 | 1.0 | 0.00 | 0.01 | 0.01 | 77 | 1018.9 |
| 20260506221100 | 60 | 242 | 0.0 | 0.0 | 0.00 | 0.01 | 0.01 | 79 | 1018.9 |
| 20260506220555 | 60 | 141 | 2.0 | 2.0 | 0.00 | 0.01 | 0.01 | 78 | 1018.9 |
| 20260506220051 | 60 | 227 | 0.0 | 0.0 | 0.00 | 0.01 | 0.01 | 77 | 1019.3 |
| 20260506215548 | 60 | 260 | 0.0 | 1.0 | 0.00 | 0.01 | 0.01 | 77 | 1019.3 |
| 20260506215044 | 60 | 238 | 0.0 | 0.0 | 0.00 | 0.01 | 0.01 | 78 | 1019.3 |
| 20260506214541 | 59 | 243 | 0.0 | 1.0 | 0.00 | 0.01 | 0.01 | 79 | 1019.3 |
| 20260506214038 | 60 | 175 | 3.0 | 3.0 | 0.00 | 0.01 | 0.01 | 79 | 1019.3 |
| 20260506213536 | 60 | 333 | 1.0 | 1.0 | 0.00 | 0.01 | 0.01 | 77 | 1019.3 |
| 20260506213033 | 60 | 183 | 1.0 | 1.0 | 0.00 | 0.01 | 0.01 | 77 | 1019.6 |
| 20260506212530 | 60 | 216 | 1.0 | 1.0 | 0.00 | 0.01 | 0.01 | 76 | 1019.3 |
| 20260506212025 | 59 | 196 | 3.0 | 3.0 | 0.00 | 0.01 | 0.01 | 78 | 1019.3 |
| 20260506211521 | 60 | 115 | 2.0 | 2.0 | 0.00 | 0.01 | 0.01 | 79 | 1019.3 |
| 20260506211018 | 60 | 211 | 2.0 | 2.0 | 0.00 | 0.01 | 0.01 | 76 | 1018.9 |
| 20260506210515 | 60 | 252 | 0.0 | 1.0 | 0.00 | 0.01 | 0.01 | 76 | 1019.3 |
| 20260506210011 | 60 | 213 | 1.0 | 2.0 | 0.00 | 0.01 | 0.01 | 78 | 1019.3 |
| 20260506205508 | 59 | 227 | 0.0 | 0.0 | 0.00 | 0.01 | 0.01 | 78 | 1019.3 |
| 20260506205003 | 59 | 216 | 0.0 | 1.0 | 0.00 | 0.01 | 0.01 | 79 | 1018.9 |
| 20260506204501 | 59 | 238 | 0.0 | 1.0 | 0.00 | 0.01 | 0.01 | 80 | 1018.9 |
| 20260506203953 | 59 | 92 | 5.0 | 6.0 | 0.00 | 0.01 | 0.01 | 80 | 1018.9 |
| 20260506203450 | 59 | 221 | 1.0 | 1.0 | 0.00 | 0.01 | 0.01 | 85 | 1018.9 |
| 20260506202947 | 58 | 127 | 3.0 | 3.0 | 0.00 | 0.01 | 0.01 | 85 | 1019.3 |
| 20260506202444 | 59 | 145 | 2.0 | 3.0 | 0.00 | 0.01 | 0.01 | 85 | 1018.9 |
| 20260506201940 | 58 | 204 | 0.0 | 0.0 | 0.00 | 0.01 | 0.01 | 84 | 1019.3 |
| 20260506201438 | 59 | 255 | 2.0 | 2.0 | 0.00 | 0.01 | 0.01 | 84 | 1018.9 |
| 20260506200934 | 58 | 207 | 0.0 | 0.0 | 0.00 | 0.01 | 0.01 | 83 | 1018.9 |
| 20260506200431 | 58 | 127 | 2.0 | 3.0 | 0.00 | 0.01 | 0.01 | 80 | 1018.9 |
| 20260506195927 | 58 | 202 | 2.0 | 2.0 | 0.00 | 0.01 | 0.01 | 81 | 1018.9 |
| 20260506195424 | 59 | 206 | 1.0 | 1.0 | 0.00 | 0.01 | 0.01 | 80 | 1018.9 |
| 20260506194921 | 59 | 254 | 0.0 | 0.0 | 0.00 | 0.01 | 0.01 | 78 | 1018.9 |
| 20260506194418 | 59 | 251 | 0.0 | 0.0 | 0.00 | 0.01 | 0.01 | 80 | 1018.9 |
| 20260506193915 | 59 | 156 | 1.0 | 1.0 | 0.00 | 0.01 | 0.01 | 79 | 1018.9 |
| 20260506193412 | 59 | 221 | 0.0 | 1.0 | 0.00 | 0.01 | 0.01 | 78 | 1018.9 |
| 20260506192908 | 58 | 303 | 1.0 | 1.0 | 0.00 | 0.01 | 0.01 | 83 | 1018.9 |
| 20260506192406 | 58 | 252 | 0.0 | 0.0 | 0.00 | 0.01 | 0.01 | 83 | 1019.3 |
| 20260506191902 | 58 | 155 | 3.0 | 5.0 | 0.00 | 0.01 | 0.01 | 81 | 1018.9 |
| 20260506191359 | 58 | 199 | 1.0 | 1.0 | 0.00 | 0.01 | 0.01 | 81 | 1018.9 |
| 20260506190856 | 58 | 314 | 0.0 | 1.0 | 0.00 | 0.01 | 0.01 | 82 | 1018.6 |
| 20260506190352 | 57 | 301 | 0.0 | 1.0 | 0.00 | 0.01 | 0.01 | 83 | 1018.9 |
| 20260506185849 | 58 | 210 | 1.0 | 3.0 | 0.00 | 0.01 | 0.01 | 82 | 1018.9 |
| 20260506185346 | 58 | 245 | 3.0 | 5.0 | 0.00 | 0.01 | 0.01 | 81 | 1018.6 |
| 20260506184843 | 57 | 229 | 0.0 | 0.0 | 0.00 | 0.01 | 0.01 | 84 | 1018.9 |
| 20260506184340 | 57 | 205 | 1.0 | 1.0 | 0.00 | 0.01 | 0.01 | 82 | 1018.6 |
| 20260506183837 | 57 | 219 | 1.0 | 1.0 | 0.00 | 0.01 | 0.01 | 84 | 1018.6 |
| 20260506183333 | 56 | 277 | 0.0 | 0.0 | 0.00 | 0.01 | 0.01 | 89 | 1018.9 |
| 20260506182830 | 56 | 148 | 3.0 | 3.0 | 0.00 | 0.01 | 0.01 | 85 | 1018.6 |
| 20260506182327 | 56 | 317 | 1.0 | 1.0 | 0.00 | 0.01 | 0.01 | 89 | 1018.9 |
| 20260506181825 | 55 | 178 | 2.0 | 2.0 | 0.00 | 0.01 | 0.01 | 87 | 1018.9 |
| 20260506181322 | 55 | 278 | 0.0 | 0.0 | 0.00 | 0.01 | 0.01 | 91 | 1018.9 |
| 20260506180819 | 55 | 213 | 1.0 | 1.0 | 0.00 | 0.01 | 0.01 | 90 | 1018.9 |
| 20260506180315 | 55 | 238 | 0.0 | 0.0 | 0.00 | 0.01 | 0.01 | 93 | 1018.9 |
| 20260506175812 | 55 | 299 | 0.0 | 1.0 | 0.00 | 0.01 | 0.01 | 93 | 1018.9 |
| 20260506175309 | 54 | 198 | 0.0 | 1.0 | 0.00 | 0.01 | 0.01 | 93 | 1018.9 |
| 20260506174806 | 54 | 259 | 0.0 | 0.0 | 0.00 | 0.01 | 0.01 | 93 | 1018.9 |
| 20260506174303 | 53 | 279 | 1.0 | 1.0 | 0.00 | 0.01 | 0.01 | 91 | 1018.9 |
| 20260506173801 | 53 | 242 | 0.0 | 0.0 | 0.00 | 0.01 | 0.01 | 95 | 1018.6 |
| 20260506173257 | 53 | 314 | 1.0 | 1.0 | 0.00 | 0.01 | 0.01 | 95 | 1018.9 |
| 20260506172754 | 52 | 84 | 1.0 | 1.0 | 0.00 | 0.01 | 0.01 | 96 | 1018.9 |
| 20260506172251 | 53 | 139 | 3.0 | 5.0 | 0.00 | 0.01 | 0.01 | 96 | 1018.9 |
| 20260506171748 | 53 | 297 | 0.0 | 0.0 | 0.00 | 0.01 | 0.01 | 99 | 1018.6 |
| 20260506171245 | 52 | 275 | 0.0 | 0.0 | 0.00 | 0.01 | 0.01 | 99 | 1018.6 |
| 20260506170743 | 52 | 264 | 0.0 | 0.0 | 0.00 | 0.01 | 0.01 | 99 | 1018.6 |
| 20260506170239 | 52 | 283 | 0.0 | 0.0 | 0.00 | 0.01 | 0.01 | 99 | 1018.6 |
| 20260506165738 | 52 | 263 | 0.0 | 0.0 | 0.00 | 0.01 | 0.01 | 99 | 1018.6 |
| 20260506165235 | 52 | 296 | 0.0 | 0.0 | 0.00 | 0.01 | 0.01 | 99 | 1018.6 |
| 20260506164732 | 51 | 242 | 0.0 | 0.0 | 0.00 | 0.01 | 0.01 | 99 | 1018.6 |
| 20260506164229 | 51 | 226 | 0.0 | 0.0 | 0.00 | 0.01 | 0.01 | 99 | 1018.6 |
| 20260506163726 | 51 | 290 | 0.0 | 0.0 | 0.00 | 0.01 | 0.01 | 99 | 1018.6 |
| 20260506163220 | 51 | 245 | 0.0 | 0.0 | 0.00 | 0.01 | 0.01 | 99 | 1018.9 |
| 20260506162717 | 51 | 298 | 0.0 | 0.0 | 0.00 | 0.01 | 0.01 | 99 | 1018.6 |
| 20260506162214 | 51 | 282 | 0.0 | 0.0 | 0.00 | 0.01 | 0.01 | 99 | 1018.6 |
| 20260506161712 | 51 | 219 | 0.0 | 1.0 | 0.00 | 0.01 | 0.01 | 99 | 1018.6 |
| 20260506161209 | 51 | 215 | 0.0 | 1.0 | 0.00 | 0.01 | 0.01 | 99 | 1018.9 |
| 20260506160706 | 51 | 246 | 0.0 | 0.0 | 0.00 | 0.01 | 0.01 | 99 | 1018.9 |
| 20260506160202 | 51 | 296 | 0.0 | 0.0 | 0.00 | 0.01 | 0.01 | 99 | 1018.6 |
| 20260506155701 | 51 | 281 | 0.0 | 0.0 | 0.00 | 0.01 | 0.01 | 99 | 1018.6 |
| 20260506155158 | 50 | 250 | 0.0 | 0.0 | 0.00 | 0.01 | 0.01 | 99 | 1018.6 |
| 20260506153300 | 50 | 279 | 0.0 | 0.0 | 0.00 | 0.01 | 0.01 | 99 | 1018.6 |
| 20260506152756 | 50 | 244 | 0.0 | 0.0 | 0.00 | 0.01 | 0.01 | 99 | 1018.6 |
| 20260506152254 | 50 | 250 | 0.0 | 0.0 | 0.00 | 0.01 | 0.01 | 99 | 1018.6 |
| 20260506151753 | 50 | 237 | 0.0 | 0.0 | 0.00 | 0.01 | 0.01 | 99 | 1018.6 |
| 20260506151249 | 50 | 219 | 0.0 | 0.0 | 0.00 | 0.01 | 0.01 | 99 | 1018.6 |
| 20260506150745 | 50 | 198 | 0.0 | 1.0 | 0.00 | 0.01 | 0.01 | 99 | 1018.2 |
| 20260506150243 | 50 | 221 | 1.0 | 1.0 | 0.00 | 0.01 | 0.01 | 99 | 1018.6 |
| 20260506145740 | 50 | 252 | 0.0 | 0.0 | 0.05 | 0.01 | 0.01 | 99 | 1018.6 |
| 20260506145236 | 50 | 241 | 0.0 | 0.0 | 0.00 | 0.00 | 0.00 | 99 | 1018.6 |
| 20260506144734 | 50 | 238 | 0.0 | 0.0 | 0.00 | 0.00 | 0.00 | 99 | 1018.6 |
| 20260506144231 | 50 | 221 | 0.0 | 0.0 | 0.00 | 0.00 | 0.00 | 99 | 1018.6 |
| 20260506143728 | 50 | 225 | 0.0 | 0.0 | 0.00 | 0.00 | 0.00 | 99 | 1018.6 |
| 20260506143225 | 50 | 260 | 0.0 | 0.0 | 0.00 | 0.00 | 0.00 | 99 | 1018.6 |
| 20260506142724 | 50 | 199 | 1.0 | 1.0 | 0.00 | 0.00 | 0.00 | 99 | 1018.6 |
| 20260506142221 | 50 | 199 | 1.0 | 2.0 | 0.00 | 0.00 | 0.00 | 99 | 1018.2 |
| 20260506141719 | 50 | 237 | 0.0 | 0.0 | 0.00 | 0.00 | 0.00 | 99 | 1018.6 |
| 20260506141217 | 50 | 227 | 0.0 | 0.0 | 0.00 | 0.00 | 0.00 | 99 | 1018.2 |
| 20260506140715 | 50 | 229 | 0.0 | 0.0 | 0.00 | 0.00 | 0.00 | 99 | 1018.2 |
| 20260506140212 | 50 | 258 | 0.0 | 0.0 | 0.00 | 0.00 | 0.00 | 99 | 1018.6 |
| 20260506135708 | 50 | 276 | 0.0 | 0.0 | 0.00 | 0.00 | 0.00 | 99 | 1018.2 |
| 20260506135204 | 50 | 267 | 0.0 | 0.0 | 0.00 | 0.00 | 0.00 | 99 | 1018.2 |
| 20260506134701 | 50 | 225 | 0.0 | 0.0 | 0.00 | 0.00 | 0.00 | 99 | 1017.9 |
| 20260506134157 | 50 | 231 | 0.0 | 0.0 | 0.00 | 0.00 | 0.00 | 99 | 1018.2 |
| 20260506133655 | 50 | 237 | 0.0 | 0.0 | 0.00 | 0.00 | 0.00 | 99 | 1017.9 |
| 20260506133151 | 50 | 238 | 0.0 | 0.0 | 0.00 | 0.00 | 0.00 | 99 | 1017.9 |
| 20260506132649 | 50 | 232 | 0.0 | 0.0 | 0.00 | 0.00 | 0.00 | 99 | 1017.9 |
| 20260506132145 | 50 | 225 | 0.0 | 0.0 | 0.00 | 0.00 | 0.00 | 99 | 1017.9 |
| 20260506131643 | 50 | 234 | 0.0 | 0.0 | 0.00 | 0.00 | 0.00 | 99 | 1018.2 |
| 20260506131139 | 50 | 217 | 0.0 | 1.0 | 0.00 | 0.00 | 0.00 | 99 | 1017.9 |
| 20260506130636 | 50 | 208 | 0.0 | 1.0 | 0.00 | 0.00 | 0.00 | 99 | 1017.9 |
| 20260506130134 | 50 | 235 | 0.0 | 0.0 | 0.00 | 0.00 | 0.00 | 99 | 1017.9 |
| 20260506125632 | 50 | 223 | 0.0 | 0.0 | 0.00 | 0.00 | 0.00 | 99 | 1017.9 |
| 20260506125129 | 50 | 251 | 0.0 | 0.0 | 0.00 | 0.00 | 0.00 | 99 | 1017.9 |
| 20260506124627 | 50 | 248 | 0.0 | 0.0 | 0.00 | 0.00 | 0.00 | 99 | 1017.9 |
| 20260506124124 | 50 | 151 | 1.0 | 2.0 | 0.00 | 0.00 | 0.00 | 99 | 1017.9 |
| 20260506123622 | 50 | 228 | 0.0 | 0.0 | 0.00 | 0.00 | 0.00 | 99 | 1017.6 |
| 20260506123120 | 50 | 232 | 0.0 | 0.0 | 0.00 | 0.00 | 0.00 | 99 | 1017.6 |
| 20260506122617 | 50 | 186 | 0.0 | 0.0 | 0.00 | 0.00 | 0.00 | 99 | 1017.6 |
| 20260506122115 | 50 | 203 | 0.0 | 0.0 | 0.00 | 0.00 | 0.00 | 99 | 1017.6 |
| 20260506121612 | 50 | 204 | 0.0 | 1.0 | 0.00 | 0.00 | 0.00 | 99 | 1017.6 |
| 20260506121108 | 50 | 246 | 0.0 | 0.0 | 0.00 | 0.00 | 0.00 | 99 | 1017.6 |
| 20260506120606 | 50 | 233 | 0.0 | 0.0 | 0.00 | 0.00 | 0.00 | 99 | 1017.6 |
| 20260506120103 | 50 | 217 | 0.0 | 0.0 | 0.00 | 0.00 | 0.00 | 99 | 1017.6 |
| 20260506115602 | 50 | 203 | 1.0 | 1.0 | 0.00 | 0.00 | 0.00 | 99 | 1017.6 |
| 20260506115059 | 50 | 208 | 0.0 | 0.0 | 0.00 | 0.00 | 0.00 | 99 | 1017.6 |
| 20260506114556 | 50 | 231 | 0.0 | 0.0 | 0.00 | 0.00 | 0.00 | 99 | 1017.6 |
| 20260506114055 | 50 | 192 | 0.0 | 1.0 | 0.00 | 0.00 | 0.00 | 99 | 1017.2 |
| 20260506113552 | 50 | 213 | 0.0 | 0.0 | 0.00 | 0.00 | 0.00 | 99 | 1017.6 |
| 20260506113049 | 50 | 171 | 1.0 | 1.0 | 0.00 | 0.00 | 0.00 | 99 | 1017.6 |
| 20260506112546 | 50 | 223 | 0.0 | 0.0 | 0.00 | 0.00 | 0.00 | 99 | 1017.2 |
| 20260506112043 | 50 | 213 | 0.0 | 1.0 | 0.00 | 0.00 | 0.00 | 99 | 1017.2 |
| 20260506111541 | 50 | 230 | 0.0 | 0.0 | 0.00 | 0.00 | 0.00 | 99 | 1017.2 |
| 20260506111038 | 50 | 219 | 0.0 | 0.0 | 0.00 | 0.00 | 0.00 | 99 | 1017.2 |
| 20260506110536 | 50 | 241 | 0.0 | 0.0 | 0.00 | 0.00 | 0.00 | 99 | 1016.9 |
| 20260506110033 | 50 | 223 | 0.0 | 0.0 | 0.00 | 0.00 | 0.00 | 99 | 1017.2 |
| 20260506105529 | 50 | 224 | 0.0 | 0.0 | 0.00 | 0.00 | 0.00 | 99 | 1016.9 |
| 20260506105026 | 50 | 224 | 0.0 | 0.0 | 0.00 | 0.00 | 0.00 | 99 | 1016.9 |
| 20260506104524 | 50 | 215 | 0.0 | 0.0 | 0.00 | 0.00 | 0.00 | 99 | 1017.2 |
| 20260506104022 | 50 | 202 | 0.0 | 1.0 | 0.00 | 0.00 | 0.00 | 99 | 1016.9 |
| 20260506103519 | 50 | 192 | 0.0 | 1.0 | 0.00 | 0.00 | 0.00 | 99 | 1016.9 |
| 20260506103015 | 50 | 224 | 0.0 | 0.0 | 0.00 | 0.00 | 0.00 | 99 | 1017.2 |
| 20260506102514 | 50 | 224 | 0.0 | 0.0 | 0.00 | 0.00 | 0.00 | 99 | 1017.2 |
| 20260506102011 | 50 | 218 | 0.0 | 0.0 | 0.00 | 0.00 | 0.00 | 99 | 1016.9 |
| 20260506101507 | 50 | 206 | 1.0 | 1.0 | 0.00 | 0.00 | 0.00 | 99 | 1016.9 |
| 20260506101004 | 50 | 211 | 1.0 | 1.0 | 0.00 | 0.00 | 0.00 | 99 | 1016.9 |
| 20260506100503 | 50 | 222 | 0.0 | 0.0 | 0.00 | 0.00 | 0.00 | 99 | 1016.9 |
| 20260506100001 | 50 | 224 | 1.0 | 1.0 | 0.00 | 0.00 | 0.00 | 99 | 1016.9 |
| 20260506095459 | 50 | 206 | 0.0 | 0.0 | 0.00 | 0.00 | 0.00 | 99 | 1016.9 |
| 20260506094955 | 50 | 208 | 0.0 | 0.0 | 0.00 | 0.00 | 0.00 | 99 | 1016.9 |
| 20260506094453 | 49 | 208 | 0.0 | 0.0 | 0.00 | 0.00 | 0.00 | 99 | 1016.9 |
| 20260506093950 | 49 | 208 | 0.0 | 0.0 | 0.00 | 0.00 | 0.00 | 99 | 1016.9 |
| 20260506093449 | 49 | 208 | 0.0 | 0.0 | 0.00 | 0.00 | 0.00 | 99 | 1016.9 |
| 20260506092946 | 49 | 208 | 0.0 | 0.0 | 0.00 | 0.00 | 0.00 | 99 | 1016.9 |
| 20260506092444 | 49 | 209 | 0.0 | 0.0 | 0.00 | 0.00 | 0.00 | 99 | 1016.9 |
| 20260506091940 | 48 | 209 | 0.0 | 0.0 | 0.00 | 0.00 | 0.00 | 99 | 1016.6 |
| 20260506091438 | 48 | 209 | 0.0 | 0.0 | 0.00 | 0.00 | 0.00 | 99 | 1016.9 |
| 20260506090935 | 48 | 208 | 0.0 | 0.0 | 0.00 | 0.00 | 0.00 | 99 | 1016.9 |
| 20260506090433 | 48 | 208 | 0.0 | 0.0 | 0.00 | 0.00 | 0.00 | 99 | 1016.6 |
| 20260506085929 | 48 | 208 | 0.0 | 0.0 | 0.00 | 0.00 | 0.00 | 99 | 1016.9 |
| 20260506085426 | 48 | 208 | 0.0 | 0.0 | 0.00 | 0.00 | 0.00 | 99 | 1016.9 |
| 20260506084922 | 48 | 208 | 0.0 | 0.0 | 0.00 | 0.00 | 0.00 | 99 | 1016.6 |
| 20260506084420 | 48 | 208 | 0.0 | 0.0 | 0.00 | 0.00 | 0.00 | 99 | 1016.6 |
| 20260506083915 | 48 | 208 | 0.0 | 0.0 | 0.00 | 0.00 | 0.00 | 99 | 1016.9 |
| 20260506083413 | 48 | 208 | 0.0 | 0.0 | 0.00 | 0.00 | 0.00 | 99 | 1016.6 |
| 20260506082910 | 48 | 208 | 0.0 | 0.0 | 0.00 | 0.00 | 0.00 | 99 | 1016.6 |
| 20260506082408 | 48 | 208 | 0.0 | 0.0 | 0.00 | 0.00 | 0.00 | 99 | 1016.6 |
| 20260506081903 | 48 | 208 | 0.0 | 0.0 | 0.00 | 0.00 | 0.00 | 99 | 1016.2 |
| 20260506081402 | 48 | 208 | 0.0 | 0.0 | 0.00 | 0.00 | 0.00 | 99 | 1016.6 |
| 20260506080858 | 48 | 208 | 0.0 | 0.0 | 0.00 | 0.00 | 0.00 | 99 | 1016.6 |
| 20260506080355 | 49 | 208 | 0.0 | 0.0 | 0.00 | 0.00 | 0.00 | 99 | 1016.6 |
| 20260506073339 | 49 | 208 | 0.0 | 0.0 | 0.00 | 0.00 | 0.00 | 99 | 1016.2 |
| 20260506072836 | 50 | 208 | 0.0 | 0.0 | 0.00 | 0.00 | 0.00 | 99 | 1016.2 |
| 20260506072334 | 50 | 208 | 0.0 | 0.0 | 0.00 | 0.00 | 0.00 | 99 | 1016.2 |
| 20260506071831 | 50 | 208 | 0.0 | 0.0 | 0.00 | 0.00 | 0.00 | 99 | 1016.2 |
| 20260506071329 | 50 | 208 | 0.0 | 0.0 | 0.00 | 0.00 | 0.00 | 99 | 1016.2 |
| 20260506070826 | 50 | 208 | 0.0 | 0.0 | 0.00 | 0.00 | 0.00 | 99 | 1016.2 |
| 20260506070323 | 50 | 208 | 0.0 | 0.0 | 0.00 | 0.00 | 0.00 | 99 | 1016.2 |
| 20260506062300 | 51 | 212 | 0.0 | 0.0 | 0.00 | 0.00 | 0.00 | 99 | 1015.4 |
| 20260506061756 | 51 | 212 | 0.0 | 0.0 | 0.00 | 0.00 | 0.00 | 99 | 1015.4 |
| 20260506061253 | 51 | 212 | 0.0 | 0.0 | 0.00 | 0.00 | 0.00 | 99 | 1015.8 |
| 20260506060751 | 51 | 211 | 0.0 | 0.0 | 0.00 | 0.00 | 0.00 | 98 | 1015.4 |